1507647600.67,38310,10.13,73414.3,-2.49,-3.27,-3.31,0,*51
1507647601.87,38311,10.13,73414.5,-2.49,-3.27,-3.31,0,*50
1507647603.06,38312,10.13,73414.8,-2.49,-3.27,-3.31,0,*53
1507647604.28,38313,10.13,73408.5,-2.51,-3.27,-3.31,0,*5B
1507647605.5,38314,10.13,73418.5,-2.51,-3.27,-3.31,0,*5C
1507647606.69,38315,10.13,73412.8,-2.49,-3.27,-3.39,0,*5C
1507647607.88,38316,10.13,73408.3,-2.49,-3.27,-3.31,0,*57
1507647609.08,38317,10.13,73404.0,-2.49,-3.39,-3.39,0,*51
1507647610.29,38318,10.13,73406.8,-2.49,-3.31,-3.43,0,*5B
1507647611.51,38319,10.13,73408.0,-2.49,-3.31,-3.43,0,*5A
1507647612.7,38320,10.13,73412.5,-2.49,-3.31,-3.39,0,*5D
1507647613.9,38321,10.13,73406.8,-2.49,-3.31,-3.39,0,*5C
1507647615.09,38322,10.13,73412.5,-2.49,-3.31,-3.39,0,*5F
1507647616.31,38323,10.13,73416.5,-2.45,-3.35,-3.47,0,*5F
1507647617.55,38324,10.13,73414.8,-2.51,-3.31,-3.43,0,*5D
1507647618.74,38325,10.13,73414.8,-2.49,-3.31,-3.39,0,*58
1507647619.94,38326,10.13,73414.3,-2.49,-3.27,-3.39,0,*5C
1507647621.13,38327,10.13,73426.0,-2.49,-3.31,-3.39,0,*5A
1507647622.32,38328,10.13,73424.8,-2.49,-3.31,-3.31,0,*5D
1507647623.52,38329,10.13,73418.5,-2.49,-3.27,-3.39,0,*53
1507647624.74,38330,10.13,73414.3,-2.51,-3.31,-3.39,0,*55
1507647625.98,38331,10.13,73416.5,-2.49,-3.43,-3.51,0,*56
1507647627.19,38332,10.13,73414.0,-2.49,-3.39,-3.43,0,*5B
1507647628.39,38333,10.13,73422.3,-2.49,-3.31,-3.39,0,*5F
1507647629.58,38334,10.13,73426.0,-2.49,-3.31,-3.39,0,*58
1507647630.84,38335,10.13,73418.8,-2.51,-3.43,-3.51,0,*5B
1507647632.08,38336,10.13,73412.5,-2.49,-3.55,-3.67,0,*53
1507647633.32,38337,10.13,73412.8,-2.51,-3.39,-3.51,0,*54
1507647634.51,38338,10.13,73408.3,-2.49,-3.31,-3.39,0,*54
1507647635.71,38339,10.13,73406.8,-2.49,-3.31,-3.39,0,*55
1507647636.9,38340,10.13,73408.0,-2.49,-3.31,-3.39,0,*5B
1507647638.1,38341,10.13,73416.5,-2.49,-3.27,-3.27,0,*52
1507647639.29,38342,10.13,73416.3,-2.49,-3.23,-3.27,0,*55
1507647640.49,38343,10.13,73426.8,-2.49,-3.27,-3.39,0,*5F
1507647641.68,38344,10.13,73432.5,-2.49,-3.27,-3.31,0,*50
1507647642.87,38345,10.13,73434.8,-2.49,-3.27,-3.31,0,*51
1507647644.06,38346,10.13,73428.5,-2.49,-3.27,-3.31,0,*52
1507647645.26,38347,10.13,73426.0,-2.49,-3.27,-3.39,0,*5B
1507647646.45,38348,10.13,73406.5,-2.49,-3.27,-3.31,0,*5C
1507647647.64,38349,10.13,73384.8,-2.49,-3.27,-3.31,0,*5D
1507647648.84,38350,10.13,73402.8,-2.49,-3.27,-3.31,0,*55
1507647650.03,38351,10.13,73404.0,-2.49,-3.27,-3.31,0,*54
1507647651.22,38352,10.13,73408.5,-2.49,-3.27,-3.31,0,*57
1507647652.41,38353,10.13,73404.8,-2.49,-3.27,-3.31,0,*56
1507647653.61,38354,10.13,73412.0,-2.49,-3.27,-3.39,0,*59
1507647654.79,38355,10.13,73414.5,-2.49,-3.23,-3.31,0,*54
1507647656.01,38356,10.13,73422.3,-2.51,-3.23,-3.31,0,*5E
1507647657.2,38357,10.13,73414.8,-2.49,-3.27,-3.31,0,*52
1507647658.39,38358,10.13,73418.0,-2.49,-3.27,-3.39,0,*55
1507647659.59,38359,10.13,73420.0,-2.49,-3.31,-3.39,0,*53
1507647660.78,38360,10.13,73418.3,-2.49,-3.31,-3.31,0,*51
1507647661.97,38361,10.13,73422.0,-2.49,-3.31,-3.39,0,*58
1507647663.17,38362,10.13,73418.5,-2.49,-3.31,-3.39,0,*5B
1507647664.39,38363,10.13,73420.5,-2.51,-3.31,-3.31,0,*5B
1507647665.58,38364,10.13,73420.5,-2.49,-3.31,-3.31,0,*55
1507647666.77,38365,10.13,73422.8,-2.49,-3.31,-3.39,0,*5C
1507647667.96,38366,10.13,73422.5,-2.49,-3.31,-3.31,0,*57
1507647669.16,38367,10.13,73426.0,-2.49,-3.31,-3.31,0,*56
1507647670.35,38368,10.13,73420.5,-2.49,-3.27,-3.31,0,*5E
1507647671.57,38369,10.13,73420.3,-2.51,-3.27,-3.39,0,*5E
1507647672.77,38370,10.13,73420.3,-2.49,-3.27,-3.39,0,*5F
1507647673.96,38371,10.13,73428.3,-2.49,-3.27,-3.39,0,*5E
1507647675.16,38372,10.13,73430.8,-2.49,-3.27,-3.39,0,*5D
1507647676.37,38373,10.13,73426.3,-2.49,-3.31,-3.51,0,*55
1507647677.58,38374,10.13,73424.0,-2.49,-3.39,-3.51,0,*5A
1507647678.8,38375,10.13,73418.8,-2.49,-3.39,-3.43,0,*58
1507647680.04,38376,10.13,73416.0,-2.51,-3.39,-3.55,0,*55
1507647681.25,38377,10.13,73422.0,-2.49,-3.39,-3.43,0,*5A
1507647682.52,38378,10.13,73414.8,-2.51,-3.43,-3.43,0,*51
1507647683.76,38379,10.13,73406.8,-2.51,-3.39,-3.43,0,*5D
1507647684.98,38380,10.13,73396.0,-2.49,-3.39,-3.51,0,*51
1507647686.17,38381,10.13,73400.5,-2.49,-3.31,-3.31,0,*5E
1507647687.39,38382,10.13,73398.5,-2.51,-3.39,-3.39,0,*54
1507647688.65,38383,10.13,73396.8,-2.51,-3.43,-3.55,0,*52
1507647689.89,38384,10.13,73406.0,-2.51,-3.39,-3.51,0,*5C
1507647691.11,38385,10.13,73408.8,-2.49,-3.39,-3.51,0,*54
1507647692.32,38386,10.13,73408.5,-2.49,-3.39,-3.43,0,*54
1507647693.54,38387,10.13,73404.3,-2.51,-3.31,-3.39,0,*59
1507647694.76,38388,10.13,73406.0,-2.51,-3.31,-3.39,0,*56
1507647696.0,38389,10.13,73410.0,-2.51,-3.31,-3.43,0,*5A
1507647697.22,38390,10.13,73414.0,-2.49,-3.31,-3.51,0,*58
1507647698.46,38391,10.13,73404.3,-2.49,-3.51,-3.55,0,*5B
1507647699.7,38392,10.13,73404.0,-2.51,-3.31,-3.43,0,*50
1507647700.92,38393,10.13,73404.3,-2.51,-3.31,-3.39,0,*5C
1507647702.16,38394,10.13,73408.8,-2.51,-3.31,-3.43,0,*56
1507647703.38,38395,10.13,73414.3,-2.49,-3.39,-3.43,0,*56
1507647704.62,38396,10.13,73408.0,-2.51,-3.31,-3.43,0,*54
1507647705.87,38397,10.13,73404.5,-2.51,-3.63,-3.75,0,*57
1507647707.11,38398,10.13,73400.8,-2.49,-3.43,-3.51,0,*55
1507647708.35,38399,10.13,73396.3,-2.51,-3.31,-3.43,0,*5B
1507647709.59,38400,10.13,73402.0,-2.49,-3.51,-3.51,0,*50
1507647710.85,38401,10.13,73408.5,-2.51,-3.43,-3.55,0,*5F
1507647712.09,38402,10.13,73404.3,-2.51,-3.31,-3.51,0,*5D
1507647713.31,38403,10.13,73406.0,-2.51,-3.31,-3.39,0,*52
1507647714.53,38404,10.13,73402.8,-2.51,-3.31,-3.31,0,*5D
1507647715.75,38405,10.13,73408.8,-2.51,-3.27,-3.31,0,*5B
1507647716.97,38406,10.13,73404.8,-2.51,-3.27,-3.39,0,*50
1507647718.18,38407,10.13,73412.3,-2.51,-3.23,-3.31,0,*5D
1507647719.4,38408,10.13,73406.5,-2.51,-3.31,-3.31,0,*51
1507647720.62,38409,10.13,73404.5,-2.51,-3.27,-3.31,0,*57
1507647721.84,38410,10.13,73408.3,-2.51,-3.23,-3.27,0,*5C
1507647723.05,38411,10.13,73406.3,-2.51,-3.23,-3.27,0,*5D
1507647724.27,38412,10.13,73402.3,-2.51,-3.23,-3.27,0,*5E
1507647725.49,38413,10.13,73392.3,-2.51,-3.27,-3.39,0,*54
1507647726.72,38414,10.13,73406.5,-2.51,-3.27,-3.39,0,*53
1507647727.98,38415,10.13,73394.8,-2.51,-3.43,-3.51,0,*5E
1507647729.24,38416,10.13,73398.0,-2.51,-3.43,-3.55,0,*59
1507647730.46,38417,10.13,73402.8,-2.51,-3.31,-3.39,0,*57
1507647731.68,38418,10.13,73402.8,-2.51,-3.31,-3.39,0,*58
1507647732.9,38419,10.13,73404.5,-2.51,-3.31,-3.31,0,*51
1507647734.12,38420,10.13,73410.3,-2.51,-3.39,-3.39,0,*5B
1507647735.34,38421,10.13,73412.3,-2.51,-3.31,-3.39,0,*52
1507647736.56,38422,10.13,73416.0,-2.51,-3.31,-3.31,0,*59
1507647737.76,38423,10.13,73412.5,-2.53,-3.31,-3.35,0,*5E
1507647738.96,38424,10.13,73414.0,-2.53,-3.27,-3.35,0,*5E
1507647740.18,38425,10.13,73410.8,-2.51,-3.27,-3.31,0,*59
1507647741.39,38426,10.13,73418.3,-2.51,-3.23,-3.31,0,*5E
1507647742.59,38427,10.13,73416.3,-2.53,-3.31,-3.35,0,*5A
1507647743.81,38428,10.13,73424.5,-2.51,-3.27,-3.27,0,*53
1507647745.03,38429,10.13,73424.3,-2.51,-3.27,-3.39,0,*5D
1507647746.25,38430,10.13,73404.0,-2.51,-3.31,-3.39,0,*52
1507647747.48,38431,10.13,73412.3,-2.51,-3.31,-3.39,0,*53
1507647748.72,38432,10.13,73416.3,-2.51,-3.31,-3.43,0,*5D
1507647749.96,38433,10.13,73420.8,-2.51,-3.39,-3.43,0,*54
1507647751.2,38434,10.13,73418.3,-2.51,-3.31,-3.51,0,*58
1507647752.42,38435,10.13,73402.3,-2.51,-3.31,-3.31,0,*5F
1507647753.64,38436,10.13,73402.8,-2.51,-3.27,-3.31,0,*5B
1507647754.86,38437,10.13,73402.8,-2.51,-3.27,-3.39,0,*52
1507647756.1,38438,10.13,73404.5,-2.51,-3.31,-3.43,0,*57
1507647757.33,38439,10.13,73404.5,-2.51,-3.31,-3.39,0,*5B
1507647758.52,38440,10.13,73390.3,-2.53,-3.35,-3.35,0,*5F
1507647759.74,38441,10.13,73390.5,-2.53,-3.35,-3.43,0,*5F
1507647760.99,38442,10.13,73384.5,-2.51,-3.31,-3.43,0,*5A
1507647762.22,38443,10.13,73392.3,-2.53,-3.43,-3.47,0,*58
1507647763.47,38444,10.13,73402.5,-2.51,-3.31,-3.43,0,*5C
1507647764.68,38445,10.13,73392.8,-2.53,-3.35,-3.43,0,*5B
1507647765.9,38446,10.13,73386.0,-2.51,-3.23,-3.31,0,*58
1507647767.11,38447,10.13,73382.8,-2.51,-3.23,-3.31,0,*59
1507647768.33,38448,10.13,73380.0,-2.51,-3.27,-3.31,0,*52
1507647769.55,38449,10.13,73386.3,-2.53,-3.31,-3.43,0,*53
1507647770.75,38450,10.13,73394.3,-2.53,-3.31,-3.35,0,*5A
1507647771.96,38451,10.13,73408.5,-2.53,-3.31,-3.43,0,*5A
1507647773.18,38452,10.13,73420.8,-2.53,-3.31,-3.47,0,*5D
1507647774.38,38453,10.13,73414.0,-2.53,-3.31,-3.35,0,*59
1507647775.57,38454,10.13,73408.0,-2.49,-3.27,-3.31,0,*56
1507647776.79,38455,10.13,73408.5,-2.53,-3.31,-3.43,0,*5E
1507647778.03,38456,10.13,73410.5,-2.51,-3.31,-3.43,0,*5F
1507647779.25,38457,10.13,73406.5,-2.51,-3.31,-3.31,0,*5B
1507647780.47,38458,10.13,73406.0,-2.51,-3.31,-3.31,0,*54
1507647781.69,38459,10.13,73408.0,-2.53,-3.31,-3.43,0,*52
1507647782.91,38460,10.13,73406.5,-2.51,-3.27,-3.31,0,*58
1507647784.13,38461,10.13,73400.5,-2.51,-3.27,-3.39,0,*51
1507647785.35,38462,10.13,73396.8,-2.51,-3.27,-3.39,0,*52
1507647786.57,38463,10.13,73398.8,-2.51,-3.27,-3.31,0,*5B
1507647787.79,38464,10.13,73404.3,-2.51,-3.31,-3.39,0,*53
1507647789.01,38465,10.13,73408.3,-2.51,-3.31,-3.31,0,*5A
1507647790.23,38466,10.13,73418.3,-2.51,-3.27,-3.39,0,*56
1507647791.43,38467,10.13,73416.3,-2.53,-3.27,-3.35,0,*59
1507647792.64,38468,10.13,73424.3,-2.51,-3.23,-3.31,0,*54
1507647793.84,38469,10.13,73428.3,-2.53,-3.27,-3.35,0,*57
1507647795.06,38470,10.13,73424.8,-2.51,-3.27,-3.39,0,*51
1507647796.25,38471,10.13,73408.8,-2.49,-3.31,-3.31,0,*56
1507647797.47,38472,10.13,73416.0,-2.51,-3.31,-3.31,0,*5C
1507647798.68,38473,10.13,73424.5,-2.51,-3.23,-3.31,0,*5E
1507647799.9,38474,10.13,73424.0,-2.51,-3.23,-3.31,0,*59
1507647801.11,38475,10.13,73406.8,-2.51,-3.23,-3.31,0,*58
1507647802.33,38476,10.13,73402.0,-2.51,-3.27,-3.31,0,*5F
1507647803.55,38477,10.13,73418.3,-2.51,-3.27,-3.39,0,*56
1507647804.77,38478,10.13,73420.5,-2.51,-3.27,-3.31,0,*51
1507647805.95,38479,10.13,73416.0,-2.49,-3.23,-3.31,0,*5D
1507647807.17,38480,10.13,73414.8,-2.51,-3.23,-3.31,0,*52
1507647808.36,38481,10.13,73418.5,-2.49,-3.27,-3.31,0,*5E
1507647809.57,38482,10.13,73408.5,-2.51,-3.23,-3.31,0,*50
1507647810.76,38483,10.13,73404.0,-2.49,-3.27,-3.31,0,*5C
1507647811.95,38484,10.13,73398.5,-2.49,-3.23,-3.27,0,*58
1507647813.17,38485,10.13,73394.8,-2.51,-3.23,-3.27,0,*50
1507647814.4,38486,10.13,73400.5,-2.51,-3.27,-3.27,0,*57
1507647815.62,38487,10.13,73402.5,-2.51,-3.27,-3.27,0,*56
1507647816.85,38488,10.13,73406.3,-2.51,-3.27,-3.27,0,*59
1507647818.06,38489,10.13,73404.5,-2.51,-3.23,-3.27,0,*5C
1507647819.28,38490,10.13,73404.3,-2.51,-3.23,-3.27,0,*54
1507647820.5,38491,10.13,73404.8,-2.51,-3.23,-3.27,0,*55
1507647821.72,38492,10.13,73402.5,-2.51,-3.23,-3.27,0,*56
1507647822.92,38493,10.13,73410.3,-2.49,-3.27,-3.27,0,*5A
1507647824.13,38494,10.13,73410.8,-2.51,-3.23,-3.27,0,*50
1507647825.36,38495,10.13,73412.8,-2.51,-3.27,-3.27,0,*55
1507647826.55,38496,10.13,73418.0,-2.49,-3.23,-3.27,0,*5B
1507647827.77,38497,10.13,73418.5,-2.51,-3.23,-3.27,0,*53
1507647828.98,38498,10.13,73420.5,-2.51,-3.23,-3.31,0,*5B
1507647830.19,38499,10.13,73420.0,-2.51,-3.23,-3.31,0,*5A
1507647831.38,38500,10.13,73416.8,-2.49,-3.27,-3.31,0,*56
1507647832.6,38501,10.13,73418.0,-2.51,-3.23,-3.27,0,*5D
1507647833.79,38502,10.13,73422.0,-2.49,-3.23,-3.27,0,*57
1507647835.01,38503,10.13,73420.8,-2.51,-3.23,-3.27,0,*5F
1507647836.2,38504,10.13,73420.3,-2.49,-3.27,-3.31,0,*52
1507647837.39,38505,10.13,73414.0,-2.49,-3.27,-3.31,0,*53
1507647838.58,38506,10.13,73416.5,-2.49,-3.23,-3.39,0,*5C
1507647839.8,38507,10.13,73420.5,-2.51,-3.27,-3.31,0,*58
1507647841.01,38508,10.13,73426.0,-2.51,-3.23,-3.31,0,*53
1507647842.23,38509,10.13,73424.0,-2.51,-3.27,-3.39,0,*5E
1507647843.45,38510,10.13,73416.3,-2.51,-3.27,-3.31,0,*5E
1507647844.67,38511,10.13,73420.8,-2.51,-3.27,-3.31,0,*5F
1507647845.89,38512,10.13,73414.8,-2.51,-3.27,-3.39,0,*54
1507647847.11,38513,10.13,73414.0,-2.51,-3.23,-3.39,0,*51
1507647848.3,38514,10.13,73414.5,-2.49,-3.27,-3.31,0,*53
1507647849.52,38515,10.13,73422.3,-2.51,-3.27,-3.31,0,*5B
1507647850.74,38516,10.13,73416.3,-2.51,-3.27,-3.39,0,*50
1507647851.94,38517,10.13,73418.3,-2.49,-3.27,-3.31,0,*50
1507647853.18,38518,10.13,73410.0,-2.51,-3.39,-3.43,0,*5C
1507647854.44,38519,10.13,73404.0,-2.51,-3.51,-3.63,0,*51
1507647855.68,38520,10.13,73406.5,-2.51,-3.31,-3.43,0,*5F
1507647856.9,38521,10.13,73390.5,-2.49,-3.39,-3.55,0,*58
1507647858.11,38522,10.13,73396.8,-2.49,-3.39,-3.51,0,*5F
1507647859.37,38523,10.13,73392.5,-2.51,-3.43,-3.43,0,*59
1507647860.59,38524,10.13,73402.3,-2.49,-3.31,-3.43,0,*52
1507647861.81,38525,10.13,73394.0,-2.51,-3.31,-3.31,0,*5F
1507647863.03,38526,10.13,73406.3,-2.51,-3.31,-3.39,0,*54
1507647864.25,38527,10.13,73412.3,-2.51,-3.31,-3.31,0,*5D
1507647865.44,38528,10.13,73412.0,-2.49,-3.27,-3.31,0,*5C
1507647866.63,38529,10.13,73414.5,-2.49,-3.27,-3.31,0,*5D
1507647867.86,38530,10.13,73410.5,-2.51,-3.27,-3.39,0,*54
1507647869.07,38531,10.13,73410.3,-2.51,-3.27,-3.31,0,*5D
1507647870.3,38532,10.13,73412.0,-2.51,-3.27,-3.39,0,*56
1507647871.51,38533,10.13,73408.8,-2.51,-3.31,-3.31,0,*58
1507647872.74,38534,10.13,73410.3,-2.51,-3.27,-3.39,0,*50
1507647873.96,38535,10.13,73404.0,-2.51,-3.27,-3.39,0,*51
1507647875.18,38536,10.13,73402.0,-2.51,-3.31,-3.39,0,*55
1507647876.42,38537,10.13,73404.5,-2.51,-3.31,-3.43,0,*59
1507647877.64,38538,10.13,73400.8,-2.51,-3.39,-3.39,0,*53
1507647878.88,38539,10.13,73404.3,-2.51,-3.31,-3.51,0,*54
1507647880.13,38540,10.13,73410.5,-2.51,-3.39,-3.51,0,*52
1507647881.34,38541,10.13,73406.8,-2.49,-3.31,-3.51,0,*52
1507647882.58,38542,10.13,73394.5,-2.51,-3.31,-3.51,0,*58
1507647883.82,38543,10.13,73408.8,-2.51,-3.31,-3.43,0,*5A
1507647885.07,38544,10.13,73396.0,-2.51,-3.31,-3.43,0,*5D
1507647886.28,38545,10.13,73398.8,-2.49,-3.39,-3.51,0,*5E
1507647887.52,38546,10.13,73396.8,-2.51,-3.39,-3.51,0,*54
1507647888.79,38547,10.13,73400.8,-2.51,-3.43,-3.63,0,*59
1507647890.05,38548,10.13,73406.5,-2.51,-3.43,-3.55,0,*53
1507647891.28,38549,10.13,73402.5,-2.51,-3.39,-3.55,0,*5F
1507647892.53,38550,10.13,73400.3,-2.51,-3.55,-3.75,0,*5F
1507647893.79,38551,10.13,73396.0,-2.51,-3.43,-3.55,0,*5B
1507647895.03,38552,10.13,73398.5,-2.51,-3.31,-3.51,0,*59
1507647896.27,38553,10.13,73398.3,-2.51,-3.31,-3.43,0,*5B
1507647897.47,38554,10.13,73400.5,-2.49,-3.31,-3.39,0,*58
1507647898.67,38555,10.13,73406.8,-2.53,-3.35,-3.35,0,*5A
1507647899.9,38556,10.13,73402.8,-2.53,-3.43,-3.47,0,*5D
1507647901.17,38557,10.13,73408.5,-2.51,-3.55,-3.51,0,*5E
1507647902.43,38558,10.13,73408.5,-2.51,-3.43,-3.51,0,*56
1507647903.65,38559,10.13,73410.3,-2.51,-3.31,-3.39,0,*5C
1507647904.87,38560,10.13,73416.5,-2.51,-3.31,-3.31,0,*5E
1507647906.09,38561,10.13,73418.5,-2.53,-3.35,-3.43,0,*5C
1507647907.29,38562,10.13,73416.8,-2.53,-3.31,-3.35,0,*5A
1507647908.49,38563,10.13,73410.0,-2.53,-3.31,-3.35,0,*5B
1507647909.71,38564,10.13,73400.5,-2.53,-3.31,-3.43,0,*5D
1507647910.93,38565,10.13,73404.3,-2.53,-3.31,-3.43,0,*5C
1507647912.15,38566,10.13,73408.8,-2.53,-3.27,-3.43,0,*58
1507647913.36,38567,10.13,73414.8,-2.51,-3.27,-3.31,0,*5E
1507647914.58,38568,10.13,73408.5,-2.53,-3.31,-3.43,0,*51
1507647915.78,38569,10.13,73412.3,-2.49,-3.27,-3.31,0,*59
1507647916.99,38570,10.13,73408.0,-2.53,-3.35,-3.47,0,*58
1507647918.21,38571,10.13,73408.5,-2.53,-3.35,-3.43,0,*5D
1507647919.43,38572,10.13,73412.8,-2.53,-3.35,-3.43,0,*5E
1507647920.65,38573,10.13,73420.0,-2.51,-3.31,-3.31,0,*5C
1507647921.87,38574,10.13,73410.5,-2.51,-3.27,-3.31,0,*5C
1507647923.09,38575,10.13,73402.5,-2.51,-3.27,-3.31,0,*5D
1507647924.33,38576,10.13,73406.8,-2.51,-3.39,-3.51,0,*57
1507647925.57,38577,10.13,73410.8,-2.51,-3.39,-3.51,0,*56
1507647926.81,38578,10.13,73416.8,-2.51,-3.31,-3.43,0,*52
1507647928.05,38579,10.13,73410.3,-2.53,-3.43,-3.47,0,*50
1507647929.29,38580,10.13,73412.3,-2.53,-3.43,-3.55,0,*55
1507647930.51,38581,10.13,73408.5,-2.53,-3.35,-3.43,0,*52
1507647931.73,38582,10.13,73408.3,-2.53,-3.35,-3.43,0,*51
1507647932.95,38583,10.13,73408.5,-2.51,-3.31,-3.39,0,*5B
1507647934.19,38584,10.13,73418.0,-2.51,-3.31,-3.43,0,*51
1507647935.43,38585,10.13,73418.3,-2.51,-3.39,-3.51,0,*5B
1507647936.65,38586,10.13,73424.3,-2.51,-3.39,-3.39,0,*56
1507647937.87,38587,10.13,73420.8,-2.51,-3.31,-3.39,0,*5F
1507647939.09,38588,10.13,73416.0,-2.53,-3.35,-3.47,0,*5F
1507647940.33,38589,10.13,73416.3,-2.51,-3.39,-3.51,0,*57
1507647941.57,38590,10.13,73412.3,-2.53,-3.47,-3.55,0,*50
1507647942.81,38591,10.13,73410.8,-2.53,-3.47,-3.47,0,*52
1507647944.05,38592,10.13,73410.3,-2.53,-3.43,-3.47,0,*55
1507647945.29,38593,10.13,73414.3,-2.53,-3.43,-3.47,0,*54
1507647946.53,38594,10.13,73412.5,-2.51,-3.39,-3.51,0,*5B
1507647947.77,38595,10.13,73412.3,-2.53,-3.47,-3.55,0,*55
1507647949.01,38596,10.13,73412.5,-2.53,-3.47,-3.47,0,*55
1507647950.23,38597,10.13,73410.8,-2.53,-3.35,-3.55,0,*52
1507647951.47,38598,10.13,73414.0,-2.55,-3.35,-3.43,0,*5C
1507647952.71,38599,10.13,73410.5,-2.51,-3.31,-3.43,0,*5D
1507647953.95,38600,10.13,73406.0,-2.53,-3.43,-3.47,0,*5D
1507647955.17,38601,10.13,73410.5,-2.51,-3.31,-3.31,0,*5A
1507647956.39,38602,10.13,73404.3,-2.51,-3.31,-3.31,0,*59
1507647957.61,38603,10.13,73406.3,-2.53,-3.35,-3.43,0,*5B
1507647958.8,38604,10.13,73402.0,-2.53,-3.35,-3.35,0,*5D
1507647960.02,38605,10.13,73404.3,-2.53,-3.31,-3.43,0,*59
1507647961.25,38606,10.13,73404.3,-2.55,-3.31,-3.35,0,*5D
1507647962.45,38607,10.13,73406.3,-2.53,-3.27,-3.35,0,*5D
1507647963.64,38608,10.13,73416.0,-2.53,-3.27,-3.35,0,*52
1507647964.84,38609,10.13,73412.5,-2.53,-3.27,-3.35,0,*53
1507647966.04,38610,10.13,73416.5,-2.53,-3.27,-3.35,0,*5B
1507647967.24,38611,10.13,73416.3,-2.53,-3.27,-3.35,0,*5A
1507647968.46,38612,10.13,73420.5,-2.53,-3.31,-3.43,0,*5F
1507647969.68,38613,10.13,73418.0,-2.51,-3.27,-3.31,0,*5E
1507647970.9,38614,10.13,73410.8,-2.51,-3.27,-3.39,0,*51
1507647972.12,38615,10.13,73406.3,-2.51,-3.27,-3.39,0,*50
1507647973.32,38616,10.13,73402.3,-2.53,-3.31,-3.35,0,*5A
1507647974.52,38617,10.13,73388.3,-2.53,-3.27,-3.35,0,*5C
1507647975.72,38618,10.13,73386.8,-2.53,-3.31,-3.35,0,*54
1507647976.92,38619,10.13,73396.8,-2.53,-3.31,-3.35,0,*55
1507647978.13,38620,10.13,73402.3,-2.53,-3.31,-3.43,0,*5E
1507647979.35,38621,10.13,73400.5,-2.51,-3.23,-3.31,0,*5B
1507647980.55,38622,10.13,73398.0,-2.53,-3.27,-3.35,0,*5A
1507647981.74,38623,10.13,73396.5,-2.53,-3.31,-3.35,0,*5C
1507647982.96,38624,10.13,73406.3,-2.53,-3.31,-3.47,0,*5E
1507647984.16,38625,10.13,73404.5,-2.53,-3.31,-3.35,0,*5A
1507647985.38,38626,10.13,73402.8,-2.53,-3.31,-3.43,0,*58
1507647986.61,38627,10.13,73404.5,-2.53,-3.43,-3.55,0,*5B
1507647987.85,38628,10.13,73416.5,-2.53,-3.43,-3.47,0,*57
1507647989.05,38629,10.13,73414.8,-2.53,-3.35,-3.35,0,*52
1507647990.25,38630,10.13,73410.0,-2.53,-3.35,-3.35,0,*5A
1507647991.47,38631,10.13,73406.5,-2.51,-3.31,-3.31,0,*59
1507647992.69,38632,10.13,73408.8,-2.51,-3.31,-3.31,0,*5A
1507647993.91,38633,10.13,73398.3,-2.51,-3.31,-3.31,0,*5B
1507647995.1,38634,10.13,73398.0,-2.53,-3.35,-3.35,0,*5E
1507647996.35,38635,10.13,73400.8,-2.55,-3.35,-3.43,0,*58
1507647997.59,38636,10.13,73392.8,-2.53,-3.47,-3.55,0,*5F
1507647998.83,38637,10.13,73398.0,-2.55,-3.35,-3.47,0,*5E
1507648000.07,38638,10.13,73400.8,-2.51,-3.31,-3.43,0,*55
1507648001.29,38639,10.13,73402.8,-2.53,-3.31,-3.43,0,*56
1507648002.49,38640,10.13,73392.8,-2.53,-3.31,-3.35,0,*59
1507648003.69,38641,10.13,73392.8,-2.53,-3.27,-3.35,0,*5F
1507648004.9,38642,10.13,73386.0,-2.53,-3.35,-3.43,0,*5E
1507648006.12,38643,10.13,73378.5,-2.53,-3.35,-3.43,0,*5F
1507648007.34,38644,10.13,73374.8,-2.53,-3.35,-3.43,0,*58
1507648008.56,38645,10.13,73372.8,-2.53,-3.35,-3.47,0,*5D
1507648009.78,38646,10.13,73386.0,-2.53,-3.35,-3.43,0,*5A
1507648011.0,38647,10.13,73390.3,-2.53,-3.35,-3.43,0,*5B
1507648012.24,38648,10.06,73382.3,-2.55,-3.35,-3.47,0,*56
1507648013.46,38649,10.13,73388.8,-2.53,-3.35,-3.43,0,*55
1507648014.68,38650,10.13,73388.5,-2.55,-3.31,-3.35,0,*5E
1507648015.9,38651,10.13,73364.8,-2.55,-3.31,-3.35,0,*5F
1507648017.1,38652,10.13,73364.3,-2.53,-3.31,-3.35,0,*5A
1507648018.32,38653,10.13,73382.0,-2.53,-3.31,-3.43,0,*5A
1507648019.54,38654,10.13,73370.3,-2.53,-3.35,-3.43,0,*59
1507648020.76,38655,10.13,73384.0,-2.53,-3.35,-3.43,0,*58
1507648021.98,38656,10.13,73390.3,-2.53,-3.35,-3.43,0,*5B
1507648023.2,38657,10.13,73396.8,-2.55,-3.31,-3.35,0,*59
1507648024.42,38658,10.13,73400.8,-2.53,-3.31,-3.43,0,*51
1507648025.64,38659,10.13,73404.3,-2.55,-3.31,-3.35,0,*57
1507648026.86,38660,10.13,73406.8,-2.53,-3.31,-3.43,0,*5A
1507648028.13,38661,10.13,73408.3,-2.55,-3.43,-3.43,0,*58
1507648029.32,38662,10.13,73398.5,-2.53,-3.35,-3.35,0,*5D
1507648030.52,38663,10.13,73392.3,-2.53,-3.31,-3.35,0,*58
1507648031.75,38664,10.13,73394.0,-2.55,-3.31,-3.35,0,*59
1507648032.96,38665,10.13,73396.0,-2.53,-3.27,-3.43,0,*58
1507648034.16,38666,10.13,73398.8,-2.53,-3.27,-3.35,0,*5A
1507648035.39,38667,10.13,73382.8,-2.55,-3.27,-3.35,0,*5D
1507648036.59,38668,10.13,73378.3,-2.53,-3.31,-3.35,0,*53
1507648037.78,38669,10.13,73386.5,-2.53,-3.31,-3.35,0,*52
1507648039.02,38670,10.13,73386.0,-2.53,-3.43,-3.47,0,*5A
1507648040.26,38671,10.13,73378.8,-2.53,-3.43,-3.43,0,*5F
1507648041.51,38672,10.13,73390.5,-2.55,-3.35,-3.43,0,*5B
1507648042.73,38673,10.13,73394.0,-2.55,-3.35,-3.35,0,*5B
1507648043.95,38674,10.13,73404.0,-2.55,-3.31,-3.35,0,*58
1507648045.15,38675,10.13,73398.3,-2.53,-3.31,-3.35,0,*5F
1507648046.35,38676,10.13,73386.5,-2.53,-3.31,-3.35,0,*5C
1507648047.59,38677,10.13,73372.5,-2.55,-3.31,-3.43,0,*5A
1507648048.86,38678,10.13,73380.8,-2.55,-3.47,-3.59,0,*5F
1507648050.12,38679,10.13,73372.8,-2.51,-3.43,-3.63,0,*57
1507648051.39,38680,10.13,73380.3,-2.51,-3.43,-3.43,0,*53
1507648052.59,38681,10.13,73392.8,-2.53,-3.31,-3.35,0,*54
1507648053.8,38682,10.13,73396.5,-2.53,-3.31,-3.43,0,*56
1507648055.0,38683,10.13,73404.3,-2.53,-3.35,-3.35,0,*52
1507648056.22,38684,10.13,73398.5,-2.53,-3.35,-3.47,0,*50
1507648057.42,38685,10.13,73402.8,-2.53,-3.31,-3.35,0,*50
1507648058.64,38686,10.13,73404.0,-2.55,-3.31,-3.35,0,*55
1507648059.84,38687,10.13,73400.0,-2.53,-3.27,-3.35,0,*55
1507648061.04,38688,10.13,73396.3,-2.53,-3.27,-3.35,0,*5A
1507648062.26,38689,10.13,73400.3,-2.55,-3.31,-3.35,0,*5A
1507648063.46,38690,10.13,73404.3,-2.53,-3.31,-3.35,0,*54
1507648064.68,38691,10.13,73406.8,-2.55,-3.31,-3.35,0,*53
1507648065.88,38692,10.13,73406.0,-2.53,-3.31,-3.35,0,*56
1507648067.08,38693,10.13,73406.0,-2.53,-3.31,-3.35,0,*57
1507648068.3,38694,10.13,73402.3,-2.55,-3.31,-3.35,0,*56
1507648069.54,38695,10.13,73400.5,-2.55,-3.31,-3.43,0,*56
1507648070.77,38696,10.13,73404.0,-2.55,-3.31,-3.35,0,*54
1507648071.96,38697,10.13,73404.8,-2.53,-3.31,-3.35,0,*53
1507648073.21,38698,10.13,73392.0,-2.55,-3.31,-3.43,0,*5B
1507648074.4,38699,10.13,73390.8,-2.53,-3.31,-3.35,0,*5D
1507648075.64,38700,10.13,73388.3,-2.53,-3.43,-3.47,0,*5C
1507648076.86,38701,10.13,73384.0,-2.53,-3.35,-3.43,0,*58
1507648078.06,38702,10.13,73386.8,-2.53,-3.35,-3.35,0,*5A
1507648079.3,38703,10.13,73376.3,-2.55,-3.35,-3.43,0,*5C
1507648080.53,38704,10.13,73378.0,-2.55,-3.35,-3.35,0,*5A
1507648081.72,38705,10.13,73374.0,-2.53,-3.35,-3.35,0,*5D
1507648082.97,38706,10.13,73378.3,-2.53,-3.47,-3.59,0,*51
1507648084.21,38707,10.13,73370.0,-2.53,-3.55,-3.67,0,*5E
1507648085.45,38708,10.13,73382.8,-2.53,-3.47,-3.55,0,*53
1507648086.71,38709,10.13,73366.8,-2.55,-3.43,-3.47,0,*53
1507648087.95,38710,10.13,73364.8,-2.55,-3.35,-3.43,0,*5E
1507648089.2,38711,10.13,73360.5,-2.53,-3.43,-3.43,0,*58
1507648090.44,38712,10.13,73360.0,-2.53,-3.43,-3.43,0,*5B
1507648091.68,38713,10.13,73366.5,-2.55,-3.35,-3.47,0,*59
1507648092.87,38714,10.13,73370.0,-2.53,-3.35,-3.35,0,*5D
1507648094.07,38715,10.13,73380.5,-2.53,-3.35,-3.35,0,*5C
1507648095.29,38716,10.13,73380.0,-2.55,-3.31,-3.35,0,*5D
1507648096.49,38717,10.13,73374.3,-2.53,-3.31,-3.35,0,*5A
1507648097.69,38718,10.13,73378.8,-2.53,-3.31,-3.35,0,*55
1507648098.91,38719,10.13,73380.0,-2.55,-3.31,-3.35,0,*52
1507648100.11,38720,10.13,73378.0,-2.53,-3.31,-3.35,0,*5E
1507648101.35,38721,10.13,73374.3,-2.55,-3.31,-3.43,0,*58
1507648102.58,38722,10.13,73380.3,-2.55,-3.31,-3.35,0,*5A
1507648103.78,38723,10.13,73384.8,-2.53,-3.31,-3.35,0,*5D